Weather reports worldwide

Advertisment
Altnaharra, United Kingdom (3044): temperature & dewpoint: 19.05.2019 23:00:00 - 25.05.2019 23:00:00 (BST)Altnaharra, United Kingdom (3044): temperature -20cm & temperature -100cm: 19.05.2019 23:00:00 - 25.05.2019 23:00:00 (BST)Altnaharra, United Kingdom (3044): wind speed & gusts: 19.05.2019 23:00:00 - 25.05.2019 23:00:00 (BST)Altnaharra, United Kingdom (3044): wind direction: 19.05.2019 23:00:00 - 25.05.2019 23:00:00 (BST)Altnaharra, United Kingdom (3044): reduced air pressure: 19.05.2019 23:00:00 - 25.05.2019 23:00:00 (BST)Altnaharra, United Kingdom (3044): visibility: 19.05.2019 23:00:00 - 25.05.2019 23:00:00 (BST)Altnaharra, United Kingdom (3044): sunshine duration: 19.05.2019 23:00:00 - 25.05.2019 23:00:00 (BST)Altnaharra, United Kingdom (3044): precipitation: 19.05.2019 23:00:00 - 25.05.2019 23:00:00 (BST)
Date & Time tt [°C] td [°C] tt -20cm [°C] tt -100cm [°C] ff [km/h] ff [kn] fx [km/h] fx [kn] dd ppp [hPa] vv [km] sd [min] rr [mm]
25.05.2019 23:00:00 - - - - - - - - - - - - 0,0
25.05.2019 22:00:00 6,7 5,8 - - 11 6 - - NE 1012,5 6 0 0,0
25.05.2019 21:00:00 7,3 6,2 - - 8 4 - - NE 1012,6 4,3 0 0,0
25.05.2019 20:00:00 7,9 5,7 - - 9 5 - - N 1012,6 30 0 0,0
25.05.2019 19:00:00 8,0 6,0 - - 18 10 - - N 1012,7 30 0 0,0
25.05.2019 18:00:00 9,0 6,9 - - 15 8 - - N 1012,9 40 0 0,2
25.05.2019 17:00:00 10,2 6,8 - - 4 2 - - NNW 1013,2 15 0 0,0
25.05.2019 16:00:00 10,3 6,6 - - 2 1 - - SW 1013,7 21 0 0,2
25.05.2019 15:00:00 9,4 6,6 - - 8 4 - - W 1014,4 18 0 0,2
25.05.2019 14:00:00 9,4 6,5 - - 9 5 - - W 1014,8 16 0 0,2
25.05.2019 13:00:00 8,9 5,9 - - 15 8 - - W 1015,2 17 0 0,2
25.05.2019 12:00:00 9,9 5,6 - - 8 4 - - WSW 1015,3 35 0 0,0
25.05.2019 11:00:00 9,1 5,0 - - 11 6 - - WSW 1015,6 28 0 0,0
25.05.2019 10:00:00 9,2 4,1 10,2 9,5 16 9 - - WSW 1016,3 40 0 0,0
25.05.2019 09:00:00 8,6 3,6 - - 18 10 - - WSW 1016,5 35 0 0,0
25.05.2019 08:00:00 8,4 3,6 - - 16 9 - - WSW 1016,5 40 0 0,0
25.05.2019 07:00:00 7,9 3,6 - - 13 7 - - WSW 1016,7 27 0 0,0
25.05.2019 06:00:00 6,8 3,9 - - 4 2 - - W 1017,0 45 0 0,0
25.05.2019 05:00:00 6,5 3,3 - - 8 4 - - WSW 1017,1 45 0 0,0
25.05.2019 04:00:00 7,0 3,5 - - 8 4 - - SW 1017,5 50 0 0,0
25.05.2019 03:00:00 7,6 4,1 - - 13 7 - - WSW 1017,5 50 0 0,0
25.05.2019 02:00:00 7,9 4,9 - - 9 5 - - SW 1017,9 45 0 0,0
25.05.2019 01:00:00 7,9 6,2 - - 13 7 - - W 1017,9 35 - 0,0
25.05.2019 00:00:00 8,0 6,6 - - 13 7 - - WSW 1018,1 8 0 0,0
24.05.2019 23:00:00 7,7 6,2 - - 11 6 - - W 1018,0 21 0 0,0
24.05.2019 22:00:00 8,0 6,6 - - 21 11 - - W 1017,9 24 0 0,0
24.05.2019 21:00:00 8,5 7,3 - - 22 12 - - W 1017,3 15 0 0,0
24.05.2019 20:00:00 9,7 7,0 - - 24 13 - - W 1016,9 35 0 0,0
24.05.2019 19:00:00 9,7 7,4 - - 22 12 - - W 1016,6 45 0 0,0
24.05.2019 18:00:00 8,8 7,6 - - 22 12 - - W 1016,6 9 0 0,0
24.05.2019 17:00:00 9,1 7,3 - - 26 14 - - W 1016,4 20 0 0,0
24.05.2019 16:00:00 10,5 6,6 - - 26 14 - - WSW 1016,2 50 0 0,0
24.05.2019 15:00:00 9,2 6,0 - - 28 15 50 27 WSW 1016,4 30 24 0,0
24.05.2019 14:00:00 10,7 5,6 - - 28 15 46 25 WSW 1015,9 18 42 0,0
24.05.2019 13:00:00 10,2 4,4 - - 26 14 - - WSW 1015,7 17 0 0,0
24.05.2019 12:00:00 10,8 4,9 - - 26 14 - - W 1015,2 18 18 0,0
24.05.2019 11:00:00 10,7 4,5 - - 26 14 - - WSW 1015,1 18 24 0,0
24.05.2019 10:00:00 10,6 4,8 10,2 9,5 24 13 - - WSW 1015,2 13 36 0,0
24.05.2019 09:00:00 8,6 4,8 - - 22 12 - - W 1015,1 14 0 0,0
24.05.2019 08:00:00 8,1 4,6 - - 26 14 - - W 1014,6 11 0 0,0
24.05.2019 07:00:00 8,3 4,8 - - 26 14 - - WSW 1014,1 15 0 0,0
24.05.2019 06:00:00 8,2 5,1 - - 34 18 - - WSW 1013,2 13 0 0,0
24.05.2019 05:00:00 8,2 5,4 - - 29 16 - - WSW 1013,2 14 0 0,0
24.05.2019 04:00:00 7,9 5,9 - - 35 19 48 26 WSW 1012,9 12 0 0,0
24.05.2019 03:00:00 7,9 6,2 - - 35 19 - - W 1012,6 10 0 0,0
24.05.2019 02:00:00 8,2 6,7 - - 26 14 - - W 1012,8 13 0 0,0
24.05.2019 01:00:00 8,4 6,7 - - 26 14 - - W 1012,4 11 - 0,0
24.05.2019 00:00:00 8,3 6,8 - - 28 15 - - W 1011,9 12 0 0,0
23.05.2019 23:00:00 8,5 7,1 - - 22 12 - - WSW 1011,5 30 0 0,0
23.05.2019 22:00:00 8,7 7,3 - - 26 14 - - W 1011,4 45 0 0,0
23.05.2019 21:00:00 8,8 7,6 - - 28 15 - - W 1011,2 29 0 0,2
23.05.2019 20:00:00 8,6 7,6 - - 26 14 - - W 1011,1 14 0 0,0
23.05.2019 19:00:00 8,5 7,4 - - 24 13 50 27 W 1010,9 5 0 0,0
23.05.2019 18:00:00 9,2 7,1 - - 34 18 48 26 W 1010,5 17 0 0,0
23.05.2019 17:00:00 9,0 7,2 - - 35 19 52 28 W 1010,2 17 0 0,2
23.05.2019 16:00:00 9,3 7,0 - - 39 21 55 30 W 1010,0 17 0 0,0
23.05.2019 15:00:00 9,5 6,9 - - 37 20 52 28 W 1009,9 35 0 0,0
23.05.2019 14:00:00 9,7 6,8 - - 34 18 48 26 W 1009,6 40 0 0,0
23.05.2019 13:00:00 9,8 6,6 - - 35 19 52 28 WSW 1009,6 22 0 0,0
23.05.2019 12:00:00 10,1 7,5 - - 34 18 50 27 WSW 1009,6 50 0 0,0
23.05.2019 11:00:00 9,5 6,9 - - 28 15 - - WSW 1009,8 30 0 0,0
23.05.2019 10:00:00 8,8 6,9 10,7 9,4 21 11 - - WSW 1010,1 19 0 0,0
23.05.2019 09:00:00 8,2 6,7 - - 21 11 - - WSW 1010,1 35 0 0,0
23.05.2019 08:00:00 8,2 6,2 - - 28 15 - - W 1010,4 50 0 0,0
23.05.2019 07:00:00 8,4 7,2 - - 11 6 - - W 1010,0 50 0 0,0
23.05.2019 06:00:00 8,5 7,5 - - 13 7 - - WSW 1010,2 30 0 0,2
23.05.2019 05:00:00 8,5 7,5 - - 16 9 - - WSW 1010,3 30 0 0,6
23.05.2019 04:00:00 8,3 7,5 - - 15 8 - - W 1010,8 14 0 1,2
23.05.2019 03:00:00 8,8 8,0 - - 26 14 - - W 1011,1 14 0 0,6
23.05.2019 02:00:00 9,1 8,1 - - 18 10 - - W 1011,4 45 0 0,6
23.05.2019 01:00:00 8,7 8,0 - - 16 9 - - W 1012,0 15 - 0,4
23.05.2019 00:00:00 8,3 7,6 - - 8 4 - - W 1012,5 12 0 0,8
22.05.2019 23:00:00 8,5 7,5 - - 16 9 - - W 1012,9 15 0 0,2
22.05.2019 22:00:00 8,4 7,6 - - 21 11 - - W 1013,2 22 0 0,2
22.05.2019 21:00:00 8,7 8,0 - - 15 8 - - W 1013,4 8 0 0,4
22.05.2019 20:00:00 9,0 8,1 - - 24 13 - - W 1013,2 11 0 0,2
22.05.2019 19:00:00 9,3 8,4 - - 28 15 - - W 1013,6 7 0 0,0
22.05.2019 18:00:00 10,2 8,1 - - 26 14 - - W 1013,7 50 0 0,0
22.05.2019 17:00:00 10,1 8,3 - - 31 17 - - W 1013,9 11 0 0,0
22.05.2019 16:00:00 10,4 8,1 - - 24 13 - - W 1014,2 45 0 0,0
22.05.2019 15:00:00 9,9 8,2 - - 26 14 - - W 1014,4 11 0 0,0
22.05.2019 14:00:00 9,9 8,6 - - 22 12 - - W 1014,4 10 0 0,2
22.05.2019 13:00:00 10,0 8,4 - - 28 15 - - W 1014,7 19 0 0,0
22.05.2019 12:00:00 10,2 8,4 - - 26 14 - - W 1014,8 35 0 0,0
22.05.2019 11:00:00 10,5 8,4 - - 22 12 - - W 1014,8 30 0 0,0
22.05.2019 10:00:00 10,0 8,9 10,7 9,4 15 8 - - W 1015,2 19 0 0,0
22.05.2019 09:00:00 9,6 8,3 - - 21 11 - - WNW 1015,1 13 0 0,4
22.05.2019 08:00:00 9,6 8,5 - - 15 8 - - W 1015,1 13 0 0,0
22.05.2019 07:00:00 9,5 8,5 - - 22 12 - - W 1015,0 20 0 0,0
22.05.2019 06:00:00 9,2 8,8 - - 18 10 - - W 1015,2 5 0 1,0
22.05.2019 05:00:00 8,6 8,1 - - 2 1 - - SSW 1015,4 12 0 0,2
22.05.2019 04:00:00 8,6 8,1 - - 4 2 - - ESE 1015,8 40 0 0,6
22.05.2019 03:00:00 8,8 7,9 - - 13 7 - - W 1015,9 45 0 0,0
22.05.2019 02:00:00 8,7 7,6 - - 15 8 - - W 1016,3 17 0 0,2
22.05.2019 01:00:00 8,9 6,7 - - 8 4 - - SW 1016,7 35 - 0,0
22.05.2019 00:00:00 8,2 6,1 - - 9 5 - - WSW 1017,2 45 0 0,0
21.05.2019 23:00:00 8,5 5,8 - - 16 9 - - WSW 1017,5 50 0 0,0
21.05.2019 22:00:00 8,8 6,0 - - 16 9 - - W 1017,9 50 0 0,0
21.05.2019 21:00:00 8,9 6,0 - - 21 11 - - WSW 1018,2 50 0 0,0
21.05.2019 20:00:00 9,3 6,3 - - 26 14 - - W 1018,2 14 18 0,0
21.05.2019 19:00:00 9,9 6,7 - - 28 15 - - W 1018,3 40 6 0,0
21.05.2019 18:00:00 11,9 5,9 - - 26 14 54 29 W 1018,0 23 18 0,0
21.05.2019 17:00:00 12,3 7,2 - - 16 9 46 25 W 1018,0 45 6 0,0
21.05.2019 16:00:00 12,5 5,1 - - 28 15 - - W 1018,0 50 30 0,0
21.05.2019 15:00:00 12,9 4,7 - - 29 16 - - W 1017,9 40 30 0,0
21.05.2019 14:00:00 12,4 5,3 - - 28 15 - - W 1017,9 45 6 0,0
21.05.2019 13:00:00 12,6 5,5 - - 26 14 - - W 1017,7 35 6 0,0
21.05.2019 12:00:00 11,6 5,3 - - 22 12 - - W 1018,1 40 0 0,0
21.05.2019 11:00:00 10,8 5,3 - - 21 11 - - W 1018,1 50 0 0,0
21.05.2019 10:00:00 10,1 5,6 10,9 9,2 21 11 - - WNW 1018,0 50 0 0,0
21.05.2019 09:00:00 9,8 7,0 - - 13 7 - - W 1017,7 50 0 0,0
21.05.2019 08:00:00 9,3 6,7 - - 4 2 - - W 1017,4 50 0 0,0
21.05.2019 07:00:00 8,7 6,8 - - 8 4 - - W 1017,5 50 0 0,0
21.05.2019 06:00:00 8,7 6,6 - - 16 9 - - WSW 1017,1 50 0 0,0
21.05.2019 05:00:00 8,5 7,3 - - 11 6 - - W 1017,0 50 0 0,0
21.05.2019 04:00:00 8,4 7,3 - - 8 4 - - WNW 1016,9 50 0 0,0
21.05.2019 03:00:00 7,2 6,5 - - 2 1 - - S 1017,0 50 0 0,0
21.05.2019 02:00:00 5,7 5,1 - - 2 1 - - WSW 1016,7 50 0 0,0
21.05.2019 01:00:00 4,8 4,2 - - 2 1 - - SSW 1017,0 50 - 0,0
21.05.2019 00:00:00 5,3 4,0 - - 4 2 - - E 1016,8 50 0 0,0
20.05.2019 23:00:00 7,0 5,2 - - 5 3 - - WSW 1016,4 50 0 0,0
20.05.2019 22:00:00 8,9 6,1 - - 5 3 - - WNW 1016,2 50 0 0,0
20.05.2019 21:00:00 10,8 7,0 - - 16 9 - - W 1015,7 50 24 0,0
20.05.2019 20:00:00 12,4 8,1 - - 26 14 - - W 1015,2 45 54 0,0
20.05.2019 19:00:00 12,7 7,9 - - 26 14 - - W 1014,9 50 0 0,0
20.05.2019 18:00:00 13,1 7,8 - - 24 13 - - W 1014,4 50 0 0,0
20.05.2019 17:00:00 14,3 9,7 - - 24 13 - - W 1014,0 27 12 0,0
20.05.2019 16:00:00 12,9 9,0 - - 24 13 - - W 1013,8 45 0 0,0
20.05.2019 15:00:00 12,4 9,3 - - 18 10 - - W 1013,6 50 0 0,2
20.05.2019 14:00:00 12,4 9,9 - - 18 10 - - W 1013,4 45 0 0,2
20.05.2019 13:00:00 12,6 9,4 - - 18 10 - - W 1013,2 50 0 0,0
20.05.2019 12:00:00 12,4 10,4 - - 15 8 - - W 1013,0 22 0 0,0
20.05.2019 11:00:00 12,2 10,1 - - 5 3 - - SW 1012,9 28 0 0,2
20.05.2019 10:00:00 11,7 9,8 10,7 9,2 5 3 - - S 1012,6 18 0 0,0
20.05.2019 09:00:00 11,5 10,4 - - 2 1 - - SE 1012,5 - 0 0,0
20.05.2019 08:00:00 10,5 10,1 - - 2 1 - - E 1012,2 - 0 0,2
20.05.2019 07:00:00 9,9 9,7 - - 2 1 - - SW 1011,9 - 0 0,6
20.05.2019 06:00:00 9,7 9,5 - - 4 2 - - W 1011,7 - 0 2,4
20.05.2019 05:00:00 9,8 9,4 - - 4 2 - - N 1011,5 - 0 1,0
20.05.2019 04:00:00 9,9 9,5 - - 8 4 - - NE 1011,3 - 0 0,6
20.05.2019 03:00:00 9,9 9,4 - - 4 2 - - W 1011,3 - 0 1,4
20.05.2019 02:00:00 9,9 9,3 - - 0 0 - - N 1011,4 - 0 0,0
20.05.2019 01:00:00 10,1 9,6 - - 2 1 - - ENE 1011,4 - - 0,2
20.05.2019 00:00:00 10,2 9,8 - - 9 5 - - WSW 1011,2 - 0 0,0
19.05.2019 23:00:00 10,4 10,0 - - 5 3 - - WSW 1011,2 - 0 0,2

tt = temperature
td = dewpoint
tt -20cm = temperature -20cm
tt -100cm = temperature -100cm
ff = wind speed
fx = gusts
dd = wind direction
ppp = reduced air pressure
vv = visibility
sd = sunshine duration
rr = precipitation

Next stations